User: anonymous   Login
Location: Fort Wayne
(41.1310°N, 85.1290°W)
Time: 13:58:59
(UTC-05:00)
Language:

Cosmos 1000 Rocket - Orbit

View from above orbital plane
View from above orbital plane
View from above satellite
View from above satellite

Ground track
Ground track

The orbit data is extracted from the following two-line orbital elements,

1 10777U 78034B   16045.07349132 -.00000046  00000-0 -62005-4 0  9998
2 10777  82.9397 234.3525 0027069 126.5962  23.4613 13.77365645903054
Epoch (UTC): 14 February 2016 01:45:49
Eccentricity: 0.0027069
inclination: 82.9397°
perigee height: 953 km
apogee height: 993 km
right ascension of ascending node: 234.3525°
argument of perigee: 126.5962°
revolutions per day: 13.77365645
mean anomaly at epoch: 23.4613°
orbit number at epoch: 90305

The dashed part of the orbit path shows where the satellite is in the earth's shadow,  

DLR